TimeMDT,TemperatureF,Dew PointF,Humidity,Sea Level PressureIn,VisibilityMPH,Wind Direction,Wind SpeedMPH,Gust SpeedMPH,PrecipitationIn,Events,Conditions,WindDirDegrees,DateUTC
12:17 AM,51.8,51.8,100,29.26,10.0,NNE,13.8,-,0.03,Rain,Light Rain,30,2013-10-11 06:17:00
12:36 AM,51.8,51.8,100,29.25,10.0,NNE,9.2,-,0.03,,Overcast,20,2013-10-11 06:36:00
12:53 AM,52.0,51.1,97,29.17,10.0,NE,11.5,-,0.03,,Overcast,40,2013-10-11 06:53:00
1:15 AM,51.8,48.2,88,29.22,10.0,NE,11.5,-,N/A,,Mostly Cloudy,40,2013-10-11 07:15:00
1:24 AM,50.0,48.2,94,29.21,10.0,Calm,Calm,-,N/A,,Mostly Cloudy,0,2013-10-11 07:24:00
1:49 AM,48.2,46.4,93,29.22,10.0,North,8.1,-,N/A,,Overcast,350,2013-10-11 07:49:00
1:53 AM,48.9,48.0,97,29.16,10.0,North,11.5,-,N/A,,Overcast,360,2013-10-11 07:53:00
2:34 AM,51.8,48.2,88,29.24,10.0,NW,18.4,-,N/A,,Overcast,310,2013-10-11 08:34:00
2:53 AM,50.0,48.0,93,29.18,7.0,WNW,29.9,36.8,0.01,Rain,Light Rain,300,2013-10-11 08:53:00
3:34 AM,48.2,46.4,93,29.28,10.0,West,31.1,42.6,0.01,Rain,Light Rain,280,2013-10-11 09:34:00
3:53 AM,48.0,46.0,93,29.24,10.0,West,25.3,40.3,0.01,Rain,Light Rain,280,2013-10-11 09:53:00
4:06 AM,48.2,46.4,93,29.30,9.0,West,34.5,50.6,0.01,Rain,Light Rain,280,2013-10-11 10:06:00
4:53 AM,48.0,46.0,93,29.31,8.0,West,29.9,50.6,0.04,Rain,Light Rain,280,2013-10-11 10:53:00
5:17 AM,46.4,46.4,100,29.40,4.0,West,27.6,42.6,0.04,Rain,Rain,280,2013-10-11 11:17:00
5:24 AM,46.4,46.4,100,29.41,5.0,West,27.6,39.1,0.06,Rain,Rain,280,2013-10-11 11:24:00
5:34 AM,46.4,46.4,100,29.43,7.0,WNW,21.9,38.0,0.09,Rain,Light Rain,290,2013-10-11 11:34:00
5:53 AM,46.9,46.0,97,29.41,6.0,WNW,29.9,43.7,0.12,Rain,Rain,290,2013-10-11 11:53:00
6:53 AM,46.9,45.0,93,29.49,7.0,WNW,27.6,38.0,0.11,Rain,Light Rain,290,2013-10-11 12:53:00
7:29 AM,46.4,42.8,87,29.57,10.0,WNW,29.9,40.3,0.02,Rain,Light Rain,290,2013-10-11 13:29:00
7:53 AM,45.0,42.1,90,29.57,10.0,WNW,25.3,36.8,0.04,Rain,Light Rain,290,2013-10-11 13:53:00
8:22 AM,44.6,41.0,87,29.64,10.0,WNW,28.8,39.1,0.00,Rain,Light Rain,290,2013-10-11 14:22:00
8:53 AM,45.0,41.0,86,29.65,10.0,WNW,21.9,34.5,0.00,,Overcast,290,2013-10-11 14:53:00
9:27 AM,44.6,41.0,87,29.70,10.0,West,19.6,31.1,N/A,,Overcast,280,2013-10-11 15:27:00
9:53 AM,46.0,41.0,83,29.68,10.0,WNW,27.6,36.8,N/A,,Overcast,290,2013-10-11 15:53:00
10:53 AM,48.9,41.0,74,29.72,10.0,WNW,26.5,39.1,N/A,,Overcast,300,2013-10-11 16:53:00
11:53 AM,50.0,37.9,63,29.76,10.0,NW,27.6,38.0,N/A,,Overcast,310,2013-10-11 17:53:00
12:53 PM,52.0,37.0,57,29.77,10.0,NW,23.0,38.0,N/A,,Overcast,310,2013-10-11 18:53:00
1:53 PM,53.1,37.9,57,29.78,10.0,NW,28.8,40.3,N/A,,Clear,310,2013-10-11 19:53:00
2:53 PM,53.1,37.9,57,29.80,10.0,NW,24.2,34.5,N/A,,Partly Cloudy,310,2013-10-11 20:53:00
3:53 PM,53.1,37.0,55,29.86,10.0,NW,19.6,29.9,N/A,,Partly Cloudy,320,2013-10-11 21:53:00
4:53 PM,51.1,36.0,56,29.89,10.0,WNW,15.0,23.0,N/A,,Overcast,300,2013-10-11 22:53:00
5:53 PM,50.0,37.0,61,29.91,10.0,WNW,9.2,-,N/A,,Overcast,290,2013-10-11 23:53:00
6:53 PM,44.1,37.9,79,29.95,10.0,NW,4.6,-,N/A,,Clear,310,2013-10-12 00:53:00
7:53 PM,39.9,37.0,89,29.99,10.0,NW,4.6,-,N/A,,Clear,310,2013-10-12 01:53:00
8:53 PM,42.1,39.0,89,30.01,10.0,West,3.5,-,N/A,,Overcast,280,2013-10-12 02:53:00
9:53 PM,43.0,39.0,86,30.04,10.0,WNW,4.6,-,N/A,,Overcast,290,2013-10-12 03:53:00
10:53 PM,42.1,37.9,85,30.06,10.0,NW,5.8,-,N/A,,Overcast,320,2013-10-12 04:53:00
11:53 PM,43.0,34.0,71,30.09,10.0,NNW,11.5,-,N/A,,Overcast,330,2013-10-12 05:53:00